Year,Month,Day,Hour,Minute,Value (Times are PST for insolation in W/m^2)
2010,02,28,07,47,35.00
2010,02,28,07,48,35.50
2010,02,28,07,49,37.70
2010,02,28,07,50,39.00
2010,02,28,07,51,39.60
2010,02,28,07,52,41.50
2010,02,28,07,53,43.70
2010,02,28,07,54,45.70
2010,02,28,07,55,46.10
2010,02,28,07,56,47.40
2010,02,28,07,57,49.00
2010,02,28,07,58,49.80
2010,02,28,07,59,51.00
2010,02,28,08,00,52.30
2010,02,28,08,01,53.00
2010,02,28,08,02,53.90
2010,02,28,08,03,54.00
2010,02,28,08,04,56.30
2010,02,28,08,05,58.00
2010,02,28,08,06,58.70
2010,02,28,08,07,60.90
2010,02,28,08,08,62.00
2010,02,28,08,09,62.70
2010,02,28,08,10,64.60
2010,02,28,08,11,66.80
2010,02,28,08,12,69.10
2010,02,28,08,13,70.00
2010,02,28,08,14,70.60
2010,02,28,08,15,72.80
2010,02,28,08,16,74.00
2010,02,28,08,17,74.00
2010,02,28,08,18,75.50
2010,02,28,08,19,76.00
2010,02,28,08,20,76.90
2010,02,28,08,21,79.20
2010,02,28,08,22,81.40
2010,02,28,08,23,83.40
2010,02,28,08,24,84.90
2010,02,28,08,25,87.10
2010,02,28,08,26,89.30
2010,02,28,08,27,90.80
2010,02,28,08,28,92.80
2010,02,28,08,29,95.10
2010,02,28,08,30,97.20
2010,02,28,08,31,98.50
2010,02,28,08,32,100.00
2010,02,28,08,33,100.90
2010,02,28,08,34,103.30
2010,02,28,08,35,102.50
2010,02,28,08,36,102.00
2010,02,28,08,37,102.00
2010,02,28,08,38,102.00
2010,02,28,08,39,102.00
2010,02,28,08,40,102.00
2010,02,28,08,41,102.00
2010,02,28,08,42,103.10
2010,02,28,08,43,104.00
2010,02,28,08,44,104.70
2010,02,28,08,45,105.00
2010,02,28,08,46,107.00
2010,02,28,08,47,107.20
2010,02,28,08,48,109.50
2010,02,28,08,49,111.70
2010,02,28,08,50,114.40
2010,02,28,08,51,117.20
2010,02,28,08,52,120.10
2010,02,28,08,53,122.60
2010,02,28,08,54,124.80
2010,02,28,08,55,125.00
2010,02,28,08,56,124.60
2010,02,28,08,57,123.00
2010,02,28,08,58,122.20
2010,02,28,08,59,120.50
2010,02,28,09,00,120.00
2010,02,28,09,01,120.00
2010,02,28,09,02,120.00
2010,02,28,09,03,120.00
2010,02,28,09,04,120.00
2010,02,28,09,05,119.50
2010,02,28,09,06,118.00
2010,02,28,09,07,118.00
2010,02,28,09,08,118.00
2010,02,28,09,09,118.00
2010,02,28,09,10,116.40
2010,02,28,09,11,116.00
2010,02,28,09,12,115.90
2010,02,28,09,13,114.00
2010,02,28,09,14,114.00
2010,02,28,09,15,113.60
2010,02,28,09,16,113.50
2010,02,28,09,17,114.00
2010,02,28,09,18,114.00
2010,02,28,09,19,115.70
2010,02,28,09,20,116.00
2010,02,28,09,21,118.00
2010,02,28,09,22,118.40
2010,02,28,09,23,120.30
2010,02,28,09,24,121.80
2010,02,28,09,25,124.10
2010,02,28,09,26,126.30
2010,02,28,09,27,127.70
2010,02,28,09,28,129.80
2010,02,28,09,29,132.00
2010,02,28,09,30,134.20
2010,02,28,09,31,136.10
2010,02,28,09,32,140.10
2010,02,28,09,33,143.90
2010,02,28,09,34,147.70
2010,02,28,09,35,150.40
2010,02,28,09,36,154.20
2010,02,28,09,37,157.70
2010,02,28,09,38,162.20
2010,02,28,09,39,165.80
2010,02,28,09,40,169.60
2010,02,28,09,41,172.30
2010,02,28,09,42,175.10
2010,02,28,09,43,177.30
2010,02,28,09,44,180.20
2010,02,28,09,45,182.70
2010,02,28,09,46,184.90
2010,02,28,09,47,186.20
2010,02,28,09,48,188.40
2010,02,28,09,49,190.70
2010,02,28,09,50,192.00
2010,02,28,09,51,190.80
2010,02,28,09,52,188.60
2010,02,28,09,53,186.40
2010,02,28,09,54,186.00
2010,02,28,09,55,186.00
2010,02,28,09,56,185.80
2010,02,28,09,57,183.90
2010,02,28,09,58,179.70
2010,02,28,09,59,176.10
2010,02,28,10,00,172.30
2010,02,28,10,01,169.60
2010,02,28,10,02,167.30
2010,02,28,10,03,167.00
2010,02,28,10,04,167.40
2010,02,28,10,05,171.60
2010,02,28,10,06,171.50
2010,02,28,10,07,162.10
2010,02,28,10,08,158.00
2010,02,28,10,09,156.70
2010,02,28,10,10,164.10
2010,02,28,10,11,180.50
2010,02,28,10,12,174.50
2010,02,28,10,13,171.00
2010,02,28,10,14,172.30
2010,02,28,10,15,187.40
2010,02,28,10,16,225.50
2010,02,28,10,17,224.30
2010,02,28,10,18,207.00
2010,02,28,10,19,207.00
2010,02,28,10,20,403.80
2010,02,28,10,21,427.00
2010,02,28,10,22,427.00
2010,02,28,10,23,427.00
2010,02,28,10,24,427.00
2010,02,28,10,25,427.00
2010,02,28,10,26,482.60
2010,02,28,10,27,512.80
2010,02,28,10,28,516.20
2010,02,28,10,29,523.60
2010,02,28,10,30,524.30
2010,02,28,10,31,503.80
2010,02,28,10,32,522.00
2010,02,28,10,33,441.60
2010,02,28,10,34,341.00
2010,02,28,10,35,447.10
2010,02,28,10,36,503.90
2010,02,28,10,37,511.40
2010,02,28,10,38,446.00
2010,02,28,10,39,374.90
2010,02,28,10,40,392.40
2010,02,28,10,41,427.00
2010,02,28,10,42,427.00
2010,02,28,10,43,459.40
2010,02,28,10,44,483.00
2010,02,28,10,45,483.00
2010,02,28,10,46,578.70
2010,02,28,10,47,592.10
2010,02,28,10,48,638.70
2010,02,28,10,49,587.40
2010,02,28,10,50,580.20
2010,02,28,10,51,547.10
2010,02,28,10,52,576.30
2010,02,28,10,53,608.00
2010,02,28,10,54,480.80
2010,02,28,10,55,457.00
2010,02,28,10,56,463.60
2010,02,28,10,57,515.30
2010,02,28,10,58,561.00
2010,02,28,10,59,465.30
2010,02,28,11,00,340.50
2010,02,28,11,01,341.40
2010,02,28,11,02,404.80
2010,02,28,11,03,481.70
2010,02,28,11,04,401.10
2010,02,28,11,05,338.10
2010,02,28,11,06,297.10
2010,02,28,11,07,291.90
2010,02,28,11,08,313.60
2010,02,28,11,09,340.60
2010,02,28,11,10,364.50
2010,02,28,11,11,380.80
2010,02,28,11,12,381.10
2010,02,28,11,13,329.60
2010,02,28,11,14,302.50
2010,02,28,11,15,267.90
2010,02,28,11,16,240.10
2010,02,28,11,17,234.60
2010,02,28,11,18,243.90
2010,02,28,11,19,250.40
2010,02,28,11,20,259.10
2010,02,28,11,21,278.90
2010,02,28,11,22,295.60
2010,02,28,11,23,294.30
2010,02,28,11,24,275.80
2010,02,28,11,25,258.90
2010,02,28,11,26,242.50
2010,02,28,11,27,233.60
2010,02,28,11,28,232.00
2010,02,28,11,29,238.30
2010,02,28,11,30,244.00
2010,02,28,11,31,237.70
2010,02,28,11,32,212.40
2010,02,28,11,33,210.70
2010,02,28,11,34,209.80
2010,02,28,11,35,206.40
2010,02,28,11,36,209.70
2010,02,28,11,37,227.00
2010,02,28,11,38,235.20
2010,02,28,11,39,228.60
2010,02,28,11,40,240.70
2010,02,28,11,41,256.90
2010,02,28,11,42,262.70
2010,02,28,11,43,264.40
2010,02,28,11,44,282.00
2010,02,28,11,45,292.70
2010,02,28,11,46,287.70
2010,02,28,11,47,271.50
2010,02,28,11,48,258.20
2010,02,28,11,49,238.60
2010,02,28,11,50,229.90
2010,02,28,11,51,257.70
2010,02,28,11,52,265.10
2010,02,28,11,53,255.00
2010,02,28,11,54,274.40
2010,02,28,11,55,274.20
2010,02,28,11,56,285.20
2010,02,28,11,57,290.60
2010,02,28,11,58,315.80
2010,02,28,11,59,318.70
2010,02,28,12,00,269.20
2010,02,28,12,01,273.80
2010,02,28,12,02,287.60
2010,02,28,12,03,295.40
2010,02,28,12,04,299.40
2010,02,28,12,05,306.30
2010,02,28,12,06,309.30
2010,02,28,12,07,326.60
2010,02,28,12,08,352.40
2010,02,28,12,09,357.90
2010,02,28,12,10,421.20
2010,02,28,12,11,443.00
2010,02,28,12,12,533.00
2010,02,28,12,13,614.80
2010,02,28,12,14,567.30
2010,02,28,12,15,608.20
2010,02,28,12,16,629.80
2010,02,28,12,17,670.20
2010,02,28,12,18,656.00
2010,02,28,12,19,509.40
2010,02,28,12,20,446.90
2010,02,28,12,21,493.30
2010,02,28,12,22,425.60
2010,02,28,12,23,420.90
2010,02,28,12,24,438.20
2010,02,28,12,25,471.10
2010,02,28,12,26,505.60
2010,02,28,12,27,507.40
2010,02,28,12,28,469.80
2010,02,28,12,29,474.40
2010,02,28,12,30,476.00
2010,02,28,12,31,476.00
2010,02,28,12,32,476.00
2010,02,28,12,33,476.70
2010,02,28,12,34,501.20
2010,02,28,12,35,527.00
2010,02,28,12,36,527.00
2010,02,28,12,37,630.60
2010,02,28,12,38,650.00
2010,02,28,12,39,650.00
2010,02,28,12,40,686.00
2010,02,28,12,41,821.00
2010,02,28,12,42,767.10
2010,02,28,12,43,642.60
2010,02,28,12,44,606.00
2010,02,28,12,45,606.00
2010,02,28,12,46,512.10
2010,02,28,12,47,510.00
2010,02,28,12,48,535.70
2010,02,28,12,49,686.90
2010,02,28,12,50,707.90
2010,02,28,12,51,677.00
2010,02,28,12,52,677.00
2010,02,28,12,53,655.10
2010,02,28,12,54,645.00
2010,02,28,12,55,645.00
2010,02,28,12,56,658.20
2010,02,28,12,57,893.30
2010,02,28,12,58,879.00
2010,02,28,12,59,661.30
2010,02,28,13,00,362.00
2010,02,28,13,01,362.00
2010,02,28,13,02,633.50
2010,02,28,13,03,790.50
2010,02,28,13,04,803.00
2010,02,28,13,05,687.00
2010,02,28,13,06,717.50
2010,02,28,13,07,789.40
2010,02,28,13,08,766.00
2010,02,28,13,09,485.20
2010,02,28,13,10,281.00
2010,02,28,13,11,371.80
2010,02,28,13,12,384.40
2010,02,28,13,13,398.40
2010,02,28,13,14,687.50
2010,02,28,13,15,754.00
2010,02,28,13,16,601.10
2010,02,28,13,17,339.00
2010,02,28,13,18,339.00
2010,02,28,13,19,243.90
2010,02,28,13,20,222.50
2010,02,28,13,21,205.40
2010,02,28,13,22,203.60
2010,02,28,13,23,200.40
2010,02,28,13,24,201.40
2010,02,28,13,25,196.60
2010,02,28,13,26,184.60
2010,02,28,13,27,168.10
2010,02,28,13,28,152.40
2010,02,28,13,29,143.10
2010,02,28,13,30,139.00
2010,02,28,13,31,138.70
2010,02,28,13,32,136.50
2010,02,28,13,33,135.00
2010,02,28,13,34,133.60
2010,02,28,13,35,130.80
2010,02,28,13,36,126.60
2010,02,28,13,37,119.50
2010,02,28,13,38,111.70
2010,02,28,13,39,104.50
2010,02,28,13,40,98.90
2010,02,28,13,41,93.70
2010,02,28,13,42,87.80
2010,02,28,13,43,83.50
2010,02,28,13,44,80.50
2010,02,28,13,45,77.50
2010,02,28,13,46,72.80
2010,02,28,13,47,63.50
2010,02,28,13,48,62.20
2010,02,28,13,49,62.80
2010,02,28,13,50,60.50
2010,02,28,13,51,58.90
2010,02,28,13,52,64.10
2010,02,28,13,53,75.80
2010,02,28,13,54,92.10
2010,02,28,13,55,97.70
2010,02,28,13,56,102.30
2010,02,28,13,57,108.10
2010,02,28,13,58,116.80
2010,02,28,13,59,125.90
2010,02,28,14,00,132.20
2010,02,28,14,01,138.40
2010,02,28,14,02,144.70
2010,02,28,14,03,151.50
2010,02,28,14,04,157.50
2010,02,28,14,05,162.30
2010,02,28,14,06,165.00
2010,02,28,14,07,164.40
2010,02,28,14,08,162.60
2010,02,28,14,09,161.00
2010,02,28,14,10,160.00
2010,02,28,14,11,158.50
2010,02,28,14,12,155.50
2010,02,28,14,13,148.70
2010,02,28,14,14,143.50
2010,02,28,14,15,137.20
2010,02,28,14,16,127.90
2010,02,28,14,17,112.00
2010,02,28,14,18,87.50
2010,02,28,14,19,66.50
2010,02,28,14,20,55.70
2010,02,28,14,21,51.30
2010,02,28,14,22,51.00
2010,02,28,14,23,51.00
2010,02,28,14,24,51.60
2010,02,28,14,25,53.00
2010,02,28,14,26,53.50
2010,02,28,14,27,55.30
2010,02,28,14,28,57.30
2010,02,28,14,29,59.70
2010,02,28,14,30,61.90
2010,02,28,14,31,65.20
2010,02,28,14,32,67.80
2010,02,28,14,33,71.50
2010,02,28,14,34,75.40
2010,02,28,14,35,79.10
2010,02,28,14,36,84.40
2010,02,28,14,37,88.90
2010,02,28,14,38,94.50
2010,02,28,14,39,100.40
2010,02,28,14,40,108.10
2010,02,28,14,41,116.40
2010,02,28,14,42,127.10
2010,02,28,14,43,139.70
2010,02,28,14,44,158.00
2010,02,28,14,45,188.60
2010,02,28,14,46,213.00
2010,02,28,14,47,237.80
2010,02,28,14,48,259.70
2010,02,28,14,49,275.80
2010,02,28,14,50,284.50
2010,02,28,14,51,287.60
2010,02,28,14,52,284.90
2010,02,28,14,53,281.70
2010,02,28,14,54,281.00
2010,02,28,14,55,297.80
2010,02,28,14,56,317.20
2010,02,28,14,57,337.60
2010,02,28,14,58,346.50
2010,02,28,14,59,344.70
2010,02,28,15,00,334.60
2010,02,28,15,01,329.00
2010,02,28,15,02,357.00
2010,02,28,15,03,371.00
2010,02,28,15,04,462.30
2010,02,28,15,05,465.70
2010,02,28,15,06,346.30
2010,02,28,15,07,409.20
2010,02,28,15,08,385.80
2010,02,28,15,09,343.00
2010,02,28,15,10,343.00
2010,02,28,15,11,276.50
2010,02,28,15,12,283.40
2010,02,28,15,13,238.80
2010,02,28,15,14,229.50
2010,02,28,15,15,192.40
2010,02,28,15,16,185.00
2010,02,28,15,17,165.80
2010,02,28,15,18,129.20
2010,02,28,15,19,126.10
2010,02,28,15,20,125.60
2010,02,28,15,21,131.30
2010,02,28,15,22,142.00
2010,02,28,15,23,161.10
2010,02,28,15,24,171.00
2010,02,28,15,25,178.90
2010,02,28,15,26,163.10
2010,02,28,15,27,153.70
2010,02,28,15,28,156.70
2010,02,28,15,29,159.70
2010,02,28,15,30,161.80
2010,02,28,15,31,159.80
2010,02,28,15,32,157.60
2010,02,28,15,33,155.70
2010,02,28,15,34,154.20
2010,02,28,15,35,153.00
2010,02,28,15,36,151.70
2010,02,28,15,37,152.50
2010,02,28,15,38,153.00
2010,02,28,15,39,154.90
2010,02,28,15,40,156.60
2010,02,28,15,41,158.90
2010,02,28,15,42,156.00
2010,02,28,15,43,155.50
2010,02,28,15,44,153.90
2010,02,28,15,45,150.30
2010,02,28,15,46,148.20
2010,02,28,15,47,146.20
2010,02,28,15,48,143.90
2010,02,28,15,49,141.90
2010,02,28,15,50,140.50
2010,02,28,15,51,139.00
2010,02,28,15,52,139.00
2010,02,28,15,53,139.00
2010,02,28,15,54,139.00
2010,02,28,15,55,140.50
2010,02,28,15,56,143.80
2010,02,28,15,57,148.50
2010,02,28,15,58,156.70
2010,02,28,15,59,165.90
2010,02,28,16,00,172.90
2010,02,28,16,01,178.50
2010,02,28,16,02,182.40
2010,02,28,16,03,184.60
2010,02,28,16,04,185.00
2010,02,28,16,05,183.00
2010,02,28,16,06,178.20
2010,02,28,16,07,172.20
2010,02,28,16,08,165.20
2010,02,28,16,09,159.30
2010,02,28,16,10,154.30
2010,02,28,16,11,150.30
2010,02,28,16,12,148.20
2010,02,28,16,13,142.60
2010,02,28,16,14,136.60
2010,02,28,16,15,128.60
2010,02,28,16,16,120.80
2010,02,28,16,17,113.90
2010,02,28,16,18,108.00
2010,02,28,16,19,102.00
2010,02,28,16,20,96.50
2010,02,28,16,21,91.80
2010,02,28,16,22,89.90
2010,02,28,16,23,86.00
2010,02,28,16,24,86.00
2010,02,28,16,25,86.70
2010,02,28,16,26,88.90
2010,02,28,16,27,92.80
2010,02,28,16,28,96.90
2010,02,28,16,29,102.70
2010,02,28,16,30,108.20
2010,02,28,16,31,114.40
2010,02,28,16,32,122.20
2010,02,28,16,33,129.50
2010,02,28,16,34,138.80
2010,02,28,16,35,151.30
2010,02,28,16,36,157.20
2010,02,28,16,37,159.30
2010,02,28,16,38,158.30
2010,02,28,16,39,158.00
2010,02,28,16,40,159.80
2010,02,28,16,41,157.40
2010,02,28,16,42,153.10
2010,02,28,16,43,146.10
2010,02,28,16,44,137.40
2010,02,28,16,45,126.20
2010,02,28,16,46,112.60
2010,02,28,16,47,99.40
2010,02,28,16,48,86.00
2010,02,28,16,49,75.90
2010,02,28,16,50,67.40
2010,02,28,16,51,61.30
2010,02,28,16,52,55.80
2010,02,28,16,53,50.70
2010,02,28,16,54,47.60
2010,02,28,16,55,46.20
2010,02,28,16,56,44.20
2010,02,28,16,57,42.10
2010,02,28,16,58,41.70
2010,02,28,16,59,39.70
2010,02,28,17,00,39.00
2010,02,28,17,01,38.00
2010,02,28,17,02,37.00
2010,02,28,17,03,35.60
2010,02,28,17,04,35.00
2010,02,28,17,05,35.00
2010,02,28,17,06,35.00
2010,02,28,17,07,35.40
2010,02,28,17,08,37.00
2010,02,28,17,09,37.90
2010,02,28,17,10,39.00
2010,02,28,17,11,39.60
2010,02,28,17,12,40.00
2010,02,28,17,13,40.00
2010,02,28,17,14,40.00
2010,02,28,17,15,40.00
2010,02,28,17,16,39.70
2010,02,28,17,17,38.20
2010,02,28,17,18,36.00
2010,02,28,17,19,33.90
2010,02,28,17,20,33.00
2010,02,28,17,21,32.20
2010,02,28,17,22,32.00
2010,02,28,17,23,32.00
2010,02,28,17,24,32.00
2010,02,28,17,25,32.00
2010,02,28,17,26,32.00
2010,02,28,17,27,32.00
2010,02,28,17,28,32.00
2010,02,28,17,29,32.80
2010,02,28,17,30,33.00
2010,02,28,17,31,32.00
2010,02,28,17,32,31.70
2010,02,28,17,33,29.60
2010,02,28,17,34,28.00
2010,02,28,17,35,27.10
2010,02,28,17,36,26.00
2010,02,28,17,37,25.30
2010,02,28,17,38,23.50
2010,02,28,17,39,21.30
2010,02,28,17,40,18.70
2010,02,28,17,41,15.70
2010,02,28,17,42,13.10
2010,02,28,17,43,10.20
2010,02,28,17,44,9.00
2010,02,28,17,45,9.00
2010,02,28,17,46,9.00
2010,02,28,17,47,7.50
2010,02,28,17,48,7.00
2010,02,28,17,49,7.00
2010,02,28,17,50,7.00
2010,02,28,17,51,7.00
2010,02,28,17,52,7.00
2010,02,28,17,53,7.00
2010,02,28,17,54,7.00
2010,02,28,17,55,5.40
2010,02,28,17,56,5.00
2010,02,28,17,57,5.00
2010,02,28,17,58,5.00
2010,02,28,17,59,5.00
2010,02,28,18,00,5.00
2010,02,28,18,01,2.40
2010,02,28,18,02,0.00
2010,02,28,18,03,0.00
2010,02,28,18,04,0.00
2010,02,28,18,05,0.00
2010,02,28,18,06,0.00
2010,02,28,18,07,0.00
2010,02,28,18,08,0.00
2010,02,28,18,09,0.00
2010,02,28,18,10,0.00
2010,02,28,18,11,0.00
2010,02,28,18,12,0.00
2010,02,28,18,13,0.00
2010,02,28,18,14,0.00
2010,02,28,18,15,0.00
2010,02,28,18,16,0.00
2010,02,28,18,17,0.00
2010,02,28,18,18,0.00
2010,02,28,18,19,0.00
2010,02,28,18,20,0.00
2010,02,28,18,21,0.00
2010,02,28,18,22,0.00
2010,02,28,18,23,0.00
2010,02,28,18,24,0.00
2010,02,28,18,25,0.00
2010,02,28,18,26,0.00
2010,02,28,18,27,0.00
2010,02,28,18,28,0.00
2010,02,28,18,29,0.00
2010,02,28,18,30,0.00
2010,02,28,18,31,0.00
2010,02,28,18,32,0.00
2010,02,28,18,33,0.00
2010,02,28,18,34,0.00
2010,02,28,18,35,0.00
2010,02,28,18,36,0.00
2010,02,28,18,37,0.00
2010,02,28,18,38,0.00
2010,02,28,18,39,0.00
2010,02,28,18,40,0.00
2010,02,28,18,41,0.00
2010,02,28,18,42,0.00
2010,02,28,18,43,0.00
2010,02,28,18,44,0.00
2010,02,28,18,45,0.00
2010,02,28,18,46,0.00
2010,02,28,18,47,0.00
2010,02,28,18,48,0.00
2010,02,28,18,49,0.00
2010,02,28,18,50,0.00
2010,02,28,18,51,0.00
2010,02,28,18,52,0.00
2010,02,28,18,53,0.00
2010,02,28,18,54,0.00
2010,02,28,18,55,0.00
2010,02,28,18,56,0.00
2010,02,28,18,57,0.00
2010,02,28,18,58,0.00
2010,02,28,18,59,0.00
2010,02,28,19,00,0.00
2010,02,28,19,01,0.00
2010,02,28,19,02,0.00
2010,02,28,19,03,0.00
2010,02,28,19,04,0.00
2010,02,28,19,05,0.00
2010,02,28,19,06,0.00
2010,02,28,19,07,0.00
2010,02,28,19,08,0.00
2010,02,28,19,09,0.00
2010,02,28,19,10,0.00
2010,02,28,19,11,0.00
2010,02,28,19,12,0.00
2010,02,28,19,13,0.00
2010,02,28,19,14,0.00
2010,02,28,19,15,0.00
2010,02,28,19,16,0.00
2010,02,28,19,17,0.00
2010,02,28,19,18,0.00
2010,02,28,19,19,0.00
2010,02,28,19,20,0.00
2010,02,28,19,21,0.00
2010,02,28,19,22,0.00
2010,02,28,19,23,0.00
2010,02,28,19,24,0.00
2010,02,28,19,25,0.00
2010,02,28,19,26,0.00
2010,02,28,19,27,0.00
2010,02,28,19,28,0.00
2010,02,28,19,29,0.00
2010,02,28,19,30,0.00
2010,02,28,19,31,0.00
2010,02,28,19,32,0.00
2010,02,28,19,33,0.00
2010,02,28,19,34,0.00
2010,02,28,19,35,0.00
2010,02,28,19,36,0.00
2010,02,28,19,37,0.00
2010,02,28,19,38,0.00
2010,02,28,19,39,0.00
2010,02,28,19,40,0.00
2010,02,28,19,41,0.00
2010,02,28,19,42,0.00
2010,02,28,19,43,0.00
2010,02,28,19,44,0.00
2010,02,28,19,45,0.00
2010,02,28,19,46,0.00
2010,02,28,19,47,0.00
2010,02,28,19,48,0.00
2010,02,28,19,49,0.00
2010,02,28,19,50,0.00
2010,02,28,19,51,0.00
2010,02,28,19,52,0.00
2010,02,28,19,53,0.00
2010,02,28,19,54,0.00
2010,02,28,19,55,0.00
2010,02,28,19,56,0.00
2010,02,28,19,57,0.00
2010,02,28,19,58,0.00
2010,02,28,19,59,0.00
2010,02,28,20,00,0.00
2010,02,28,20,01,0.00
2010,02,28,20,02,0.00
2010,02,28,20,03,0.00
2010,02,28,20,04,0.00
2010,02,28,20,05,0.00
2010,02,28,20,06,0.00
2010,02,28,20,07,0.00
2010,02,28,20,08,0.00
2010,02,28,20,09,0.00
2010,02,28,20,10,0.00
2010,02,28,20,11,0.00
2010,02,28,20,12,0.00
2010,02,28,20,13,0.00
2010,02,28,20,14,0.00
2010,02,28,20,15,0.00
2010,02,28,20,16,0.00
2010,02,28,20,17,0.00
2010,02,28,20,18,0.00
2010,02,28,20,19,0.00
2010,02,28,20,20,0.00
2010,02,28,20,21,0.00
2010,02,28,20,22,0.00
2010,02,28,20,23,0.00
2010,02,28,20,24,0.00
2010,02,28,20,25,0.00
2010,02,28,20,26,0.00
2010,02,28,20,27,0.00
2010,02,28,20,28,0.00
2010,02,28,20,29,0.00
2010,02,28,20,30,0.00
2010,02,28,20,31,0.00
2010,02,28,20,32,0.00
2010,02,28,20,33,0.00
2010,02,28,20,34,0.00
2010,02,28,20,35,0.00
2010,02,28,20,36,0.00
2010,02,28,20,37,0.00
2010,02,28,20,38,0.00
2010,02,28,20,39,0.00
2010,02,28,20,40,0.00
2010,02,28,20,41,0.00
2010,02,28,20,42,0.00
2010,02,28,20,43,0.00
2010,02,28,20,44,0.00
2010,02,28,20,45,0.00
2010,02,28,20,46,0.00
2010,02,28,20,47,0.00
2010,02,28,20,48,0.00
2010,02,28,20,49,0.00
2010,02,28,20,50,0.00
2010,02,28,20,51,0.00
2010,02,28,20,52,0.00
2010,02,28,20,53,0.00
2010,02,28,20,54,0.00
2010,02,28,20,55,0.00
2010,02,28,20,56,0.00
2010,02,28,20,57,0.00
2010,02,28,20,58,0.00
2010,02,28,20,59,0.00
2010,02,28,21,00,0.00
2010,02,28,21,01,0.00
2010,02,28,21,02,0.00
2010,02,28,21,03,0.00
2010,02,28,21,04,0.00
2010,02,28,21,05,0.00
2010,02,28,21,06,0.00
2010,02,28,21,07,0.00
2010,02,28,21,08,0.00
2010,02,28,21,09,0.00
2010,02,28,21,10,0.00
2010,02,28,21,11,0.00
2010,02,28,21,12,0.00
2010,02,28,21,13,0.00
2010,02,28,21,14,0.00
2010,02,28,21,15,0.00
2010,02,28,21,16,0.00
2010,02,28,21,17,0.00
2010,02,28,21,18,0.00
2010,02,28,21,19,0.00
2010,02,28,21,20,0.00
2010,02,28,21,21,0.00
2010,02,28,21,22,0.00
2010,02,28,21,23,0.00
2010,02,28,21,24,0.00
2010,02,28,21,25,0.00
2010,02,28,21,26,0.00
2010,02,28,21,27,0.00
2010,02,28,21,28,0.00
2010,02,28,21,29,0.00
2010,02,28,21,30,0.00
2010,02,28,21,31,0.00
2010,02,28,21,32,0.00
2010,02,28,21,33,0.00
2010,02,28,21,34,0.00
2010,02,28,21,35,0.00
2010,02,28,21,36,0.00
2010,02,28,21,37,0.00
2010,02,28,21,38,0.00
2010,02,28,21,39,0.00
2010,02,28,21,40,0.00
2010,02,28,21,41,0.00
2010,02,28,21,42,0.00
2010,02,28,21,43,0.00
2010,02,28,21,44,0.00
2010,02,28,21,45,0.00
2010,02,28,21,46,0.00
2010,02,28,21,47,0.00
2010,02,28,21,48,0.00
2010,02,28,21,49,0.00
2010,02,28,21,50,0.00
2010,02,28,21,51,0.00
2010,02,28,21,52,0.00
2010,02,28,21,53,0.00
2010,02,28,21,54,0.00
2010,02,28,21,55,0.00
2010,02,28,21,56,0.00
2010,02,28,21,57,0.00
2010,02,28,21,58,0.00
2010,02,28,21,59,0.00
2010,02,28,22,00,0.00
2010,02,28,22,01,0.00
2010,02,28,22,02,0.00
2010,02,28,22,03,0.00
2010,02,28,22,04,0.00
2010,02,28,22,05,0.00
2010,02,28,22,06,0.00
2010,02,28,22,07,0.00
2010,02,28,22,08,0.00
2010,02,28,22,09,0.00
2010,02,28,22,10,0.00
2010,02,28,22,11,0.00
2010,02,28,22,12,0.00
2010,02,28,22,13,0.00
2010,02,28,22,14,0.00
2010,02,28,22,15,0.00
2010,02,28,22,16,0.00
2010,02,28,22,17,0.00
2010,02,28,22,18,0.00
2010,02,28,22,19,0.00
2010,02,28,22,20,0.00
2010,02,28,22,21,0.00
2010,02,28,22,22,0.00
2010,02,28,22,23,0.00
2010,02,28,22,24,0.00
2010,02,28,22,25,0.00
2010,02,28,22,26,0.00
2010,02,28,22,27,0.00
2010,02,28,22,28,0.00
2010,02,28,22,29,0.00
2010,02,28,22,30,0.00
2010,02,28,22,31,0.00
2010,02,28,22,32,0.00
2010,02,28,22,33,0.00
2010,02,28,22,34,0.00
